{"data":{"norad_id":60067,"epoch":"2026-09-21T09:31:38.506080Z","epoch_age_seconds":100699,"freshness":"FRESH","line1":"1 60067U 24113J   26264.39697345  .00000097  00000+0  56610-5 0  9994","line2":"2 60067  53.1594 306.8541 0001242  89.0308 271.0852 15.69699004130291","mean_motion":15.69699004,"eccentricity":0.0001242,"inclination_deg":53.1594,"raan_deg":306.8541,"arg_perigee_deg":89.0308,"mean_anomaly_deg":271.0852,"bstar":5.661e-6,"rev_number":13029,"period_min":91.737332847285,"perigee_km":358.92137036048,"apogee_km":360.59506353237,"semimajor_km":6737.8952169464,"source":"CELESTRAK","updated_at":"2026-09-22T09:00:49.147871Z"}}